Location: Huesca
(42.1318°N, 0.4078°W)
Time: 20:02:38
(UTC+02:00)

YUBILEINY - Pass Details

Date: 23 April 2026
Orbit: 1477 x 1509 km, 82.5° (Epoch: 17 May)

Event Time Altitude Azimuth Distance (km) Brightness Sun altitude
Rises 23:04:49 0° 1° (N) 4,611 ? -22.0°
Reaches altitude 10° 23:09:12 10° 21° (NNE) 3,630 ? -22.6°
Maximum altitude 23:14:29 17° 59° (ENE) 3,106 ? -23.2°
Enters shadow 23:17:22 15° 82° (E) 3,273 ? -23.6°
